Lapse_Rate
5.8 5.9 5.8 5.5 4.9 4.3 7.9 9.2 6.5 9.9 10.1 7.0 7.1 6.5 6.5 6.1 6.7 7.5 6.6 6.5 6.5 6.5 6.5 6.5 6.5 6.5 6.5 7.0 6.4 6.5 6.5 6.5 6.5 6.5 6.5 6.5 6.5 6.5 6.5 6.5 6.5 6.5 6.5 6.5
6.0 6.1 5.7 5.6 5.3 4.9 9.5 8.5 8.2 9.8 9.8 6.5 6.5 6.7 6.5 6.9 6.5 6.5 6.5 6.5 6.5 6.5 6.5 6.5 6.5 6.5 6.7 7.1 6.5 6.5 6.5 6.5 6.5 6.5 6.5 6.5 6.5 6.5 6.5 6.5 6.5 6.5 6.5 6.5
5.9 6.1 6.2 6.0 5.8 5.3 8.9 8.7 6.5 8.1 8.6 8.0 6.6 6.5 6.5 6.5 7.3 6.7 7.0 6.5 6.8 6.5 6.5 6.5 6.5 6.5 6.5 7.1 6.7 6.9 6.7 6.5 6.5 6.5 6.5 6.5 6.5 6.5 6.5 6.5 6.5 6.5 6.5 6.5
5.9 6.3 6.4 6.8 6.4 5.8 8.9 8.5 7.0 7.8 6.5 6.8 6.6 6.6 6.5 6.5 6.5 7.0 7.2 6.5 6.5 6.5 6.5 6.5 6.5 6.5 6.5 6.6 6.8 6.5 6.5 6.5 6.5 6.5 6.5 6.5 6.5 6.5 6.5 6.5 6.5 6.5 6.5 6.5
5.7 6.2 6.4 6.7 6.9 6.5 9.2 8.0 7.5 7.9 7.6 7.3 6.6 6.5 6.5 6.5 6.5 6.5 6.5 6.5 6.5 6.5 6.5 6.5 6.5 6.5 6.5 6.5 6.5 6.5 6.5 6.5 6.5 6.5 6.5 6.5 6.5 6.5 6.5 6.5 6.5 6.5 6.5 6.5
5.5 5.8 6.2 6.8 6.9 7.1 8.8 9.0 9.1 7.9 7.0 6.8 6.5 6.5 6.5 6.5 6.6 7.0 7.1 6.7 6.5 6.5 6.5 7.1 7.5 7.7 7.4 6.7 6.5 6.5 6.5 6.5 6.5 6.5 6.5 6.5 6.5 6.5 6.5 6.5 6.5 6.5 6.5 6.5
5.4 5.6 5.9 6.5 7.1 6.8 7.4 8.7 8.3 7.2 6.5 6.5 6.5 6.5 6.8 6.5 6.6 6.5 7.3 7.5 6.6 7.3 8.6 8.4 8.2 7.8 7.3 6.9 6.6 6.8 6.5 6.5 6.5 6.5 6.5 6.5 6.5 6.5 6.5 6.5 6.5 6.5 6.5 6.5
5.2 5.5 6.1 6.2 6.9 6.9 6.6 7.5 7.8 7.4 6.5 6.9 6.6 6.7 6.6 7.1 7.2 6.7 7.0 7.5 8.0 8.6 7.9 6.5 6.5 6.5 6.5 6.5 6.5 6.5 6.5 6.5 6.5 6.5 6.5 6.5 6.5 6.5 6.5 6.5 6.5 6.5 6.5 6.5
4.7 5.5 6.0 6.2 7.0 7.2 6.7 6.4 7.4 7.8 7.0 6.6 7.4 6.9 7.0 6.5 6.5 6.5 7.1 8.2 8.8 8.3 6.5 6.5 6.5 6.5 6.5 6.5 6.5 6.5 6.5 6.5 6.5 6.5 6.5 6.5 6.5 6.5 6.9 6.5 6.5 6.5 6.5 6.5
4.3 5.5 5.7 6.1 7.1 7.1 6.5 6.3 6.1 7.4 7.1 7.7 8.0 6.8 6.8 7.5 7.0 6.5 7.0 7.2 7.3 8.0 6.5 6.5 6.5 6.5 6.5 6.5 6.5 6.5 6.5 6.5 6.5 6.5 6.5 6.5 6.5 6.5 7.1 6.5 6.5 6.8 7.1 7.0
4.3 5.0 5.6 5.6 6.1 6.8 6.1 5.9 5.4 6.1 7.1 7.8 8.6 8.6 7.8 7.6 7.3 6.5 7.1 7.0 7.0 6.6 6.5 6.5 6.5 6.5 6.5 6.5 6.5 6.5 6.5 6.5 6.5 6.5 6.5 6.5 6.8 6.7 6.5 6.6 7.3 7.4 7.4 7.5
4.4 4.6 5.2 5.3 5.7 6.6 6.3 6.2 4.8 5.5 6.4 7.3 8.7 9.2 9.1 8.8 8.6 7.8 7.4 7.2 7.0 7.1 6.5 6.5 6.5 6.5 6.5 6.5 6.5 6.5 6.5 6.5 6.5 6.5 6.5 6.6 7.2 7.0 7.6 7.9 7.5 7.6 7.7 8.0
4.2 4.1 4.6 5.2 5.6 6.3 6.3 5.6 4.0 4.8 6.2 7.0 7.8 8.3 9.3 10.0 9.8 9.7 7.2 7.7 8.1 7.8 8.3 6.8 6.5 6.5 6.5 6.5 6.5 6.5 6.5 6.8 6.5 6.5 6.5 6.5 7.3 7.9 8.1 8.0 8.0 8.2 8.3 8.3
3.8 3.7 3.9 4.2 6.0 6.2 6.4 6.0 4.2 5.3 6.5 6.9 7.6 9.5 8.9 9.9 9.9 9.6 9.4 8.9 8.7 8.3 8.0 6.9 6.5 6.5 6.9 6.5 6.5 6.5 6.6 6.5 6.5 6.5 6.5 6.9 7.4 7.8 8.0 8.1 8.3 8.2 8.4 8.4
2.9 3.0 3.1 3.9 5.5 5.7 6.6 6.4 5.2 5.7 5.9 6.8 7.4 8.7 9.3 9.6 9.4 9.2 9.2 8.8 8.3 7.6 6.8 6.6 6.5 6.7 6.6 6.7 6.5 6.5 6.9 6.5 6.5 6.5 6.8 6.9 7.0 7.9 8.1 8.0 8.0 8.2 8.2 8.1
2.2 2.5 3.2 3.7 3.9 4.4 8.7 8.0 7.1 5.3 5.6 6.6 6.5 8.6 8.5 9.0 8.9 8.8 8.5 8.4 8.1 7.9 7.1 6.8 7.2 7.8 6.8 6.5 6.5 6.5 7.7 7.9 7.9 6.9 7.9 7.8 7.9 8.2 8.5 8.2 8.3 8.4 8.4 8.3
2.1 2.3 3.2 3.4 3.8 6.0 7.7 7.0 6.0 5.2 6.2 6.6 6.7 6.7 8.2 8.6 8.4 8.2 8.1 8.2 7.8 7.5 6.9 7.0 6.9 7.2 6.8 6.5 6.5 6.6 7.6 7.6 7.6 7.8 7.7 7.4 8.1 7.8 8.5 8.4 8.5 8.1 8.5 7.1
1.8 2.9 4.0 3.8 4.1 5.1 6.0 5.6 4.5 5.6 6.6 6.7 6.5 6.5 7.0 6.8 6.9 6.8 6.8 7.0 7.0 7.1 7.1 7.1 6.6 6.8 6.7 6.5 6.5 7.2 7.4 7.7 7.5 7.5 7.7 8.2 8.4 8.3 8.0 8.2 8.3 7.9 7.1 6.0
1.8 3.2 4.3 7.0 8.0 7.2 6.1 6.0 5.4 5.7 6.3 7.0 6.8 6.5 6.5 7.0 7.1 7.0 6.7 6.8 6.5 7.2 6.5 6.6 6.7 6.5 6.5 6.5 6.6 6.8 7.2 7.0 7.2 7.5 7.5 8.1 8.1 8.1 7.9 8.2 7.9 5.8 6.6 5.9
2.1 5.0 8.9 7.9 8.5 5.5 5.8 5.6 6.6 6.6 6.8 6.6 6.8 6.7 6.5 6.7 6.9 6.7 6.7 6.8 6.5 6.5 6.5 7.0 6.5 6.5 6.7 6.3 6.5 6.3 6.2 7.5 7.6 7.2 7.0 7.3 7.6 7.9 7.8 7.4 6.4 6.6 5.4 6.7
8.5 8.5 8.3 8.2 4.9 5.2 7.2 7.1 6.7 6.8 6.6 6.6 6.7 6.8 6.6 6.8 6.5 6.5 6.9 6.5 6.5 6.5 6.5 6.5 6.5 6.5 6.5 6.8 6.8 6.5 6.6 6.7 7.6 7.8 7.1 7.3 7.7 7.4 6.9 6.1 6.2 6.4 6.3 7.6
3.8 4.4 3.1 6.4 8.3 7.7 6.6 6.5 6.7 6.5 6.5 7.0 6.8 6.8 5.9 6.5 6.6 6.6 6.6 6.5 6.5 6.5 6.6 6.5 6.5 6.5 6.8 6.7 6.7 6.6 6.3 6.3 6.7 6.8 6.2 6.4 6.5 5.4 6.1 5.6 5.1 6.1 5.6 7.0
5.2 6.1 6.8 7.8 7.6 6.5 6.5 6.5 6.5 6.5 6.9 7.3 7.1 6.6 7.2 7.4 6.5 6.7 6.5 6.5 6.5 6.8 6.5 6.5 6.5 6.6 6.8 6.5 6.5 6.7 6.5 6.3 6.2 5.8 6.5 5.2 4.2 5.0 5.1 5.3 5.6 5.7 5.6 6.6
8.1 7.3 6.5 6.5 6.5 6.5 6.5 6.5 6.6 7.5 7.9 8.0 7.9 7.1 6.9 7.3 6.6 6.5 6.5 6.5 6.5 6.5 6.5 6.5 6.5 7.1 7.4 7.4 6.9 6.6 6.3 5.8 5.0 5.1 5.0 4.0 4.0 4.4 4.2 4.4 5.7 6.0 5.1 5.8
7.7 7.6 6.5 6.5 7.2 7.5 7.8 8.0 7.8 8.2 8.5 8.1 7.4 7.2 7.5 6.5 6.5 6.5 6.5 6.5 6.5 6.5 6.5 6.5 7.4 7.6 7.7 7.7 7.5 7.7 7.5 7.0 6.0 4.4 4.5 5.1 4.3 3.9 3.6 3.0 2.9 3.8 5.3 5.2
8.0 7.7 6.8 7.6 7.2 7.3 7.9 7.9 7.9 8.6 8.4 8.1 7.8 6.6 6.5 6.5 6.5 6.5 6.5 6.5 6.5 6.5 6.6 7.5 8.0 7.7 7.9 7.9 8.1 8.1 7.9 8.4 8.3 8.2 7.1 7.4 7.8 6.5 6.0 5.1 3.9 4.1 5.5 5.2
7.5 7.3 8.4 8.1 7.8 7.6 8.0 8.3 8.4 8.8 8.2 6.5 6.8 6.5 6.5 6.6 6.5 6.5 6.5 6.5 6.5 6.9 7.5 8.0 8.0 8.0 8.1 8.3 8.2 8.3 8.4 8.4 8.4 8.5 8.5 8.4 8.6 8.6 8.3 8.3 8.7 8.6 7.9 7.5
Wind_Speed
24 25 23 24 25 28 10 7 6 10 13 4 4 7 11 13 11 14 11 10 12 13 11 10 4 4 7 7 7 17 17 10 11 26 25 26 29 23 27 14 23 19 14 5
22 23 22 22 24 21 9 7 4 5 11 6 7 9 9 9 12 11 11 9 10 14 14 5 3 1 4 10 5 1 7 14 15 16 21 23 30 28 25 25 16 21 16 4
22 22 22 21 21 16 7 5 5 4 4 2 12 11 11 11 8 6 14 8 15 15 15 10 4 3 5 7 9 9 5 14 23 19 20 19 26 29 27 27 19 17 17 15
22 21 20 20 18 15 6 3 4 4 7 9 13 13 9 11 9 10 10 3 10 11 7 12 12 6 10 1 9 6 5 14 9 15 2 6 18 28 30 30 26 23 18 20
20 20 19 19 15 15 4 5 4 2 9 10 12 5 9 10 14 14 11 11 8 9 6 11 12 11 6 5 9 8 5 4 6 14 10 7 10 12 13 22 27 26 25 22
20 20 19 16 13 7 3 1 3 3 5 8 8 7 12 15 14 9 7 14 14 12 11 8 14 14 14 14 11 8 7 3 8 15 10 10 15 20 19 18 17 17 21 16
22 22 20 18 11 7 4 4 3 3 7 7 10 14 14 13 12 12 16 15 14 10 14 16 18 18 16 14 13 11 8 8 6 6 6 15 11 10 20 23 18 19 18 17
25 25 22 20 18 9 4 3 3 3 6 10 14 8 10 12 11 12 15 11 7 8 14 10 9 9 8 15 15 14 13 9 7 10 12 9 5 3 8 11 17 17 15 9
28 26 24 22 20 15 5 5 5 4 3 4 6 14 12 11 9 8 8 8 7 7 6 6 7 5 4 5 7 15 14 12 9 7 15 14 4 16 3 2 9 6 6 8
30 27 26 24 22 18 7 3 10 4 4 7 9 7 8 6 7 7 9 6 5 3 4 7 6 8 2 5 10 12 14 11 14 13 11 9 8 8 2 11 4 6 4 7
30 29 26 25 23 21 8 2 14 4 4 10 18 15 12 10 9 9 4 6 2 4 4 4 3 6 3 6 10 6 10 12 12 13 16 21 6 9 12 11 10 12 11 11
30 29 26 25 24 22 13 3 12 14 5 6 16 19 19 20 20 10 4 8 4 2 3 2 3 4 4 6 9 9 13 12 11 9 11 12 6 11 12 15 15 14 17 17
29 30 26 24 24 21 13 2 4 2 2 6 10 8 6 15 17 15 8 6 9 8 8 3 3 5 5 6 8 12 14 13 13 17 21 21 15 19 17 13 18 18 17 18
29 29 27 25 23 19 12 2 5 2 1 3 4 3 8 8 10 15 17 15 6 5 3 4 4 4 4 8 11 11 10 7 12 19 21 20 19 18 19 18 16 16 17 17
29 28 27 25 20 12 7 4 6 5 3 3 7 17 7 6 8 14 15 16 15 4 3 4 3 3 5 11 11 15 16 21 15 15 13 16 19 15 12 14 15 18 17 16
27 28 25 21 12 4 2 2 3 7 2 2 3 5 4 3 3 9 12 12 9 7 4 4 5 13 5 4 7 18 19 18 20 18 17 13 15 14 17 19 19 19 16 14
25 24 20 12 6 4 0 2 1 7 2 1 3 4 0 4 5 3 4 9 4 4 2 3 6 9 5 4 15 26 19 17 15 15 15 19 22 17 17 17 18 17 15 8
24 15 6 14 13 5 1 2 10 8 1 1 2 3 4 3 3 2 3 2 3 3 3 3 4 3 5 7 20 22 19 21 21 18 17 21 20 20 18 17 15 11 10 5
18 6 9 4 2 1 1 8 11 3 1 1 1 2 3 3 3 2 3 2 2 2 3 3 3 1 5 15 22 23 19 12 12 13 16 21 20 20 16 18 13 10 9 5
3 6 4 3 3 8 12 3 1 1 0 1 2 0 3 2 1 2 1 2 2 2 1 3 2 3 12 22 20 12 18 22 16 14 14 12 13 15 14 8 7 9 5 8
2 1 3 3 8 3 2 2 2 1 2 2 3 4 4 3 2 2 2 1 2 3 2 3 4 9 24 28 25 23 9 10 14 14 10 8 6 6 3 2 7 9 9 9
3 3 1 3 1 3 5 5 4 3 5 4 4 4 3 3 3 2 1 2 1 5 7 5 7 11 22 27 27 24 25 23 15 11 12 17 20 19 13 15 17 17 17 9
3 0 3 5 6 8 6 6 4 7 7 5 9 9 4 2 4 3 3 6 5 2 6 4 6 15 19 23 24 25 26 26 27 24 19 25 26 22 20 19 15 17 16 13
4 5 7 6 5 4 3 7 10 8 9 13 10 5 3 3 3 4 5 5 5 6 6 6 8 18 20 18 18 21 23 24 22 20 21 24 21 18 20 19 17 18 17 15
5 5 6 6 5 5 7 7 7 9 9 7 5 4 8 7 4 5 6 5 5 6 5 6 10 15 15 16 17 18 18 17 17 16 16 17 18 18 18 17 17 16 15 17
4 7 7 8 8 11 12 12 12 11 8 2 3 5 6 8 5 7 7 5 5 4 6 8 11 14 16 16 15 15 14 16 16 15 16 16 17 17 13 13 14 13 14 15
4 5 7 9 8 10 11 11 12 10 10 5 4 6 5 4 5 5 3 3 3 5 7 7 10 12 14 14 16 16 17 17 14 13 15 14 13 15 16 17 15 15 15 15
Wind_Direction
347 347 349 349 349 347 329 337 336 6 327 332 345 4 330 321 320 340 307 293 290 297 314 289 255 155 28 350 262 217 219 230 205 202 198 215 202 204 202 216 212 239 279 248
346 346 349 349 350 355 328 342 312 2 333 14 355 349 319 325 339 8 341 306 349 301 292 277 318 332 44 358 6 173 184 221 212 187 203 203 215 204 211 219 233 213 222 218
343 345 349 350 346 346 319 319 329 4 306 349 348 342 338 334 8 322 345 345 317 316 256 245 300 351 24 355 13 320 255 243 222 215 206 194 216 205 213 211 223 227 211 225
336 340 344 348 348 339 299 4 26 3 326 333 332 320 315 332 344 343 316 105 21 355 295 285 255 338 316 246 8 335 309 218 239 248 318 270 218 213 213 215 223 227 227 215
330 330 332 339 351 330 293 327 334 308 299 307 308 320 321 346 337 330 319 338 336 326 305 308 322 327 321 329 340 326 333 199 228 233 211 226 227 228 235 231 226 232 242 249
321 318 320 325 348 325 308 280 287 280 285 292 316 322 330 317 316 305 302 325 320 312 310 298 287 292 283 278 293 312 290 283 226 221 205 241 235 220 215 225 226 233 234 240
313 310 308 310 312 324 285 292 292 267 285 302 298 304 298 311 319 307 305 299 297 315 321 295 268 253 253 258 253 243 273 241 258 243 158 233 251 206 215 226 228 226 245 257
308 305 307 300 295 277 251 258 243 242 276 308 296 303 305 304 287 278 296 313 323 317 289 280 260 222 218 232 233 225 218 254 240 235 217 275 179 146 207 212 226 229 240 251
303 307 306 302 293 276 259 213 212 251 281 250 316 301 287 290 296 289 257 315 310 282 287 266 261 251 316 178 189 208 200 219 242 214 238 223 298 195 4 89 241 229 223 255
303 309 307 305 300 289 236 219 191 231 249 264 254 266 286 298 282 279 296 307 304 239 257 257 244 249 266 259 230 176 200 202 219 227 247 241 257 91 81 192 84 31 327 313
305 309 310 307 301 290 265 197 187 189 237 272 275 270 259 259 251 257 295 299 191 240 243 273 235 272 279 279 259 268 200 198 215 232 239 236 272 316 234 12 332 332 333 337
309 310 311 305 299 294 289 222 186 198 225 265 303 282 274 250 246 253 229 268 291 263 264 240 286 263 258 294 261 197 247 262 268 232 227 258 271 289 315 315 308 314 318 320
312 310 310 305 301 298 287 195 139 141 280 276 254 257 250 228 234 224 228 225 242 253 268 275 282 274 297 252 242 266 264 269 265 264 254 270 279 277 280 298 300 301 298 304
312 311 309 304 305 303 289 193 170 152 155 270 284 282 254 270 237 227 219 234 199 266 279 246 243 250 268 269 277 269 270 271 247 250 253 263 260 276 278 283 295 298 298 304
311 309 308 308 312 311 270 191 182 183 173 268 292 298 260 336 226 219 217 220 233 209 230 222 238 234 251 254 269 256 250 249 242 245 248 242 247 251 297 293 292 296 296 295
310 310 314 314 307 257 214 194 112 185 180 289 293 355 297 243 218 216 216 221 221 218 208 237 238 243 263 253 254 258 248 241 243 251 257 280 273 267 280 280 278 282 285 281
313 318 320 319 147 172 341 28 116 161 129 274 285 290 164 277 267 230 229 215 218 217 216 235 252 253 217 244 258 262 270 271 263 257 263 268 258 252 265 261 264 268 270 275
321 336 57 112 129 108 129 146 143 146 120 360 288 281 289 38 291 210 153 180 172 209 240 236 240 227 216 248 250 263 258 266 253 254 261 264 265 272 271 283 272 280 262 217
328 172 136 168 191 92 357 119 130 61 39 293 279 289 305 351 269 268 152 146 215 228 230 247 262 247 252 271 273 260 244 229 230 236 237 244 246 236 239 252 255 312 217 207
161 187 226 104 45 120 121 162 122 101 68 118 258 297 271 290 280 286 341 177 8 298 288 306 258 265 279 295 333 337 221 219 223 222 235 243 237 222 230 239 275 265 153 215
223 11 50 48 131 184 202 24 9 351 296 209 243 242 284 193 288 320 63 16 355 327 323 6 332 347 347 344 12 23 71 164 199 217 236 252 236 149 222 303 164 115 86 62
21 27 169 246 348 24 7 14 334 334 339 313 304 322 216 277 221 278 140 336 257 35 338 5 1 343 351 355 11 28 36 51 74 78 58 75 73 56 71 68 58 49 52 35
179 97 50 17 15 28 14 333 325 326 341 323 320 330 328 280 228 308 359 33 29 330 15 24 348 338 357 355 1 22 30 42 52 48 47 63 56 43 55 58 55 62 54 44
41 30 24 35 21 357 277 286 305 301 299 313 333 334 4 3 5 354 5 35 36 27 20 16 349 344 344 1 7 21 28 31 40 40 44 53 53 48 48 49 47 55 52 46
43 35 29 15 319 331 339 326 314 332 325 306 330 338 19 31 46 21 0 28 46 26 3 347 344 345 352 7 15 24 30 31 37 39 45 55 56 52 50 43 42 42 51 53
55 40 8 357 357 3 3 355 356 352 330 248 28 28 8 37 31 8 17 4 35 354 336 340 347 3 12 12 23 28 36 40 44 46 50 47 51 64 69 64 61 56 63 62
40 34 36 23 16 3 1 358 357 345 16 36 55 45 20 330 40 11 18 356 331 329 340 353 5 11 16 27 31 28 31 37 37 48 52 54 56 59 57 61 61 63 63 65